2017-008CJ

Last updated on Mon Mar 06 2017 00:15:03 GMT+0000 (Coordinated Universal Time)

1 42028U 17008CJ 17064.15429625 .00002144 00000-0 97193-4 0 9998 2 42028 97.5102 125.7615 0007567 205.9990 154.0883 15.21925726 2560
UTC large
Height (km)
Speed (km/s)
/
Latitude / Longitude
Inclination (degrees)
Orbital Period (minutes)
Azimuth
Elevation
Range (km)
Doppler Factor

Next 0 passes for location: London (51.5072 / 0.1276)

Sorry there are no passes over London.